Time,TemperatureF,DewpointF,PressureIn,WindDirection,WindDirectionDegrees,WindSpeedMPH,WindSpeedGustMPH,Humidity,HourlyPrecipIn,Conditions,Clouds,dailyrainin,SolarRadiationWatts/m^2,SoftwareType,DateUTC
2013-07-03 00:04:00,76.8,64.6,29.96,SW,219,0.0,0.0,66,0.00,,,0.00,0,Wunderground v.1.15,2013-07-02 21:04:00,
2013-07-03 00:14:00,76.6,65.2,29.96,SW,219,0.0,0.0,68,0.00,,,0.00,0,Wunderground v.1.15,2013-07-02 21:14:00,
2013-07-03 00:24:00,76.3,65.4,29.96,SW,219,0.0,0.0,69,0.00,,,0.00,0,Wunderground v.1.15,2013-07-02 21:24:00,
2013-07-03 00:34:00,76.2,66.1,29.96,SW,219,0.0,0.0,71,0.00,,,0.00,0,Wunderground v.1.15,2013-07-02 21:34:00,
2013-07-03 00:44:00,76.0,65.9,29.96,SW,219,0.0,1.0,71,0.00,,,0.00,0,Wunderground v.1.15,2013-07-02 21:44:00,
2013-07-03 00:54:00,75.8,65.3,29.96,SW,219,0.0,1.0,70,0.00,,,0.00,0,Wunderground v.1.15,2013-07-02 21:54:00,
2013-07-03 01:04:00,75.7,64.8,29.95,SW,219,0.0,0.0,69,0.00,,,0.00,0,Wunderground v.1.15,2013-07-02 22:04:00,
2013-07-03 01:14:00,75.7,64.4,29.95,SW,219,0.0,0.0,68,0.00,,,0.00,0,Wunderground v.1.15,2013-07-02 22:14:00,
2013-07-03 01:24:00,75.7,64.8,29.95,SW,219,0.0,0.0,69,0.00,,,0.00,0,Wunderground v.1.15,2013-07-02 22:24:00,
2013-07-03 01:34:00,75.5,64.2,29.95,SW,219,1.0,1.0,68,0.00,,,0.00,0,Wunderground v.1.15,2013-07-02 22:34:00,
2013-07-03 01:45:00,75.4,64.5,29.95,SW,219,0.0,0.0,69,0.00,,,0.00,0,Wunderground v.1.15,2013-07-02 22:45:00,
2013-07-03 01:54:00,75.4,64.5,29.95,SW,219,0.0,0.0,69,0.00,,,0.00,0,Wunderground v.1.15,2013-07-02 22:54:00,
2013-07-03 02:04:00,75.4,64.5,29.95,SW,219,0.0,0.0,69,0.00,,,0.00,0,Wunderground v.1.15,2013-07-02 23:04:00,
2013-07-03 02:14:00,75.3,64.4,29.94,SW,219,0.0,0.0,69,0.00,,,0.00,0,Wunderground v.1.15,2013-07-02 23:14:00,
2013-07-03 02:24:00,75.2,64.3,29.94,SW,219,0.0,0.0,69,0.00,,,0.00,0,Wunderground v.1.15,2013-07-02 23:24:00,
2013-07-03 02:34:00,75.3,64.4,29.94,SW,219,0.0,0.0,69,0.00,,,0.00,0,Wunderground v.1.15,2013-07-02 23:34:00,
2013-07-03 02:44:00,75.2,64.3,29.94,SW,219,0.0,0.0,69,0.00,,,0.00,0,Wunderground v.1.15,2013-07-02 23:44:00,
2013-07-03 02:54:00,75.2,64.3,29.94,SW,219,0.0,0.0,69,0.00,,,0.00,0,Wunderground v.1.15,2013-07-02 23:54:00,
2013-07-03 03:04:00,75.0,63.3,29.94,SW,219,0.0,0.0,67,0.00,,,0.00,0,Wunderground v.1.15,2013-07-03 00:04:00,
2013-07-03 03:14:00,74.8,60.9,29.94,SW,219,0.0,0.0,62,0.00,,,0.00,0,Wunderground v.1.15,2013-07-03 00:14:00,
2013-07-03 03:24:00,74.8,59.0,29.94,SW,219,0.0,0.0,58,0.00,,,0.00,0,Wunderground v.1.15,2013-07-03 00:24:00,
2013-07-03 03:34:00,74.9,58.6,29.93,SW,219,0.0,0.0,57,0.00,,,0.00,0,Wunderground v.1.15,2013-07-03 00:34:00,
2013-07-03 03:45:00,74.9,57.1,29.93,SW,219,0.0,0.0,54,0.00,,,0.00,0,Wunderground v.1.15,2013-07-03 00:45:00,
2013-07-03 03:54:00,75.2,56.4,29.93,SW,219,1.0,2.0,52,0.00,,,0.00,0,Wunderground v.1.15,2013-07-03 00:54:00,
2013-07-03 04:04:00,75.2,54.7,29.93,SW,219,1.0,1.0,49,0.00,,,0.00,0,Wunderground v.1.15,2013-07-03 01:04:00,
2013-07-03 04:14:00,75.0,54.0,29.93,SW,219,0.0,0.0,48,0.00,,,0.00,0,Wunderground v.1.15,2013-07-03 01:14:00,
2013-07-03 04:24:00,74.9,53.9,29.93,SW,219,0.0,0.0,48,0.00,,,0.00,0,Wunderground v.1.15,2013-07-03 01:24:00,
2013-07-03 04:34:00,74.9,53.3,29.93,SW,219,1.0,1.0,47,0.00,,,0.00,0,Wunderground v.1.15,2013-07-03 01:34:00,
2013-07-03 04:44:00,74.9,53.3,29.93,SW,219,0.0,0.0,47,0.00,,,0.00,0,Wunderground v.1.15,2013-07-03 01:44:00,
2013-07-03 04:54:00,75.3,53.1,29.93,SW,219,2.0,5.0,46,0.00,,,0.00,0,Wunderground v.1.15,2013-07-03 01:54:00,
2013-07-03 05:04:00,75.6,52.8,29.93,SW,219,4.0,4.0,45,0.00,,,0.00,0,Wunderground v.1.15,2013-07-03 02:04:00,
2013-07-03 05:14:00,75.6,52.8,29.93,SW,219,2.0,2.0,45,0.00,,,0.00,0,Wunderground v.1.15,2013-07-03 02:14:00,
2013-07-03 05:24:00,75.5,52.7,29.93,SW,219,2.0,2.0,45,0.00,,,0.00,0,Wunderground v.1.15,2013-07-03 02:24:00,
2013-07-03 05:45:00,75.5,52.7,29.93,SW,219,3.0,3.0,45,0.00,,,0.00,0,Wunderground v.1.15,2013-07-03 02:45:00,
2013-07-03 05:54:00,75.4,52.6,29.93,SW,219,1.0,1.0,45,0.00,,,0.00,0,Wunderground v.1.15,2013-07-03 02:54:00,
2013-07-03 06:14:00,75.3,53.1,29.93,SW,219,1.0,2.0,46,0.00,,,0.00,9,Wunderground v.1.15,2013-07-03 03:14:00,
2013-07-03 06:24:00,75.3,53.1,29.93,SW,219,1.0,3.0,46,0.00,,,0.00,14,Wunderground v.1.15,2013-07-03 03:24:00,
2013-07-03 06:34:00,75.4,53.2,29.93,SW,219,2.0,6.0,46,0.00,,,0.00,26,Wunderground v.1.15,2013-07-03 03:34:00,
2013-07-03 06:54:00,75.8,52.9,29.93,SW,219,3.0,5.0,45,0.00,,,0.00,60,Wunderground v.1.15,2013-07-03 03:54:00,
2013-07-03 07:04:00,76.0,53.1,29.93,SW,219,3.0,3.0,45,0.00,,,0.00,84,Wunderground v.1.15,2013-07-03 04:04:00,
2013-07-03 07:14:00,76.4,53.5,29.94,SW,219,1.0,1.0,45,0.00,,,0.00,114,Wunderground v.1.15,2013-07-03 04:14:00,
2013-07-03 07:24:00,76.8,53.2,29.94,SW,219,2.0,3.0,44,0.00,,,0.00,139,Wunderground v.1.15,2013-07-03 04:24:00,
2013-07-03 07:34:00,77.1,53.5,29.94,SW,219,2.0,2.0,44,0.00,,,0.00,165,Wunderground v.1.15,2013-07-03 04:34:00,
2013-07-03 07:44:00,77.3,53.1,29.94,SW,219,3.0,3.0,43,0.00,,,0.00,193,Wunderground v.1.15,2013-07-03 04:44:00,
2013-07-03 07:54:00,77.8,53.5,29.94,SW,219,2.0,2.0,43,0.00,,,0.00,220,Wunderground v.1.15,2013-07-03 04:54:00,
2013-07-03 08:04:00,77.7,52.8,29.95,SW,219,3.0,3.0,42,0.00,,,0.00,248,Wunderground v.1.15,2013-07-03 05:04:00,
2013-07-03 08:15:00,77.9,53.0,29.94,SW,219,4.0,4.0,42,0.00,,,0.00,276,Wunderground v.1.15,2013-07-03 05:15:00,
2013-07-03 08:24:00,78.4,53.4,29.95,SW,219,3.0,4.0,42,0.00,,,0.00,302,Wunderground v.1.15,2013-07-03 05:24:00,
2013-07-03 08:34:00,78.8,53.8,29.94,SW,219,2.0,4.0,42,0.00,,,0.00,332,Wunderground v.1.15,2013-07-03 05:34:00,
2013-07-03 08:45:00,79.3,54.2,29.94,SW,219,2.0,2.0,42,0.00,,,0.00,362,Wunderground v.1.15,2013-07-03 05:45:00,
2013-07-03 08:54:00,79.6,53.8,29.94,SW,219,2.0,2.0,41,0.00,,,0.00,390,Wunderground v.1.15,2013-07-03 05:54:00,
2013-07-03 09:04:00,79.7,53.9,29.95,SW,219,4.0,4.0,41,0.00,,,0.00,415,Wunderground v.1.15,2013-07-03 06:04:00,
2013-07-03 09:14:00,80.1,53.6,29.94,SW,219,4.0,4.0,40,0.00,,,0.00,452,Wunderground v.1.15,2013-07-03 06:14:00,
2013-07-03 09:24:00,80.5,53.3,29.94,SW,219,3.0,6.0,39,0.00,,,0.00,480,Wunderground v.1.15,2013-07-03 06:24:00,
2013-07-03 09:34:00,80.8,53.5,29.94,SSW,211,4.0,4.0,39,0.00,,,0.00,506,Wunderground v.1.15,2013-07-03 06:34:00,
2013-07-03 09:44:00,81.1,53.8,29.94,SSW,196,3.0,3.0,39,0.00,,,0.00,536,Wunderground v.1.15,2013-07-03 06:44:00,
2013-07-03 09:54:00,81.1,53.8,29.94,South,186,3.0,3.0,39,0.00,,,0.00,561,Wunderground v.1.15,2013-07-03 06:54:00,
2013-07-03 10:04:00,81.7,53.6,29.94,South,180,3.0,3.0,38,0.00,,,0.00,591,Wunderground v.1.15,2013-07-03 07:04:00,
2013-07-03 10:15:00,81.5,53.4,29.94,South,175,5.0,5.0,38,0.00,,,0.00,615,Wunderground v.1.15,2013-07-03 07:15:00,
2013-07-03 10:24:00,82.0,53.2,29.94,SE,133,4.0,4.0,37,0.00,,,0.00,643,Wunderground v.1.15,2013-07-03 07:24:00,
2013-07-03 11:15:00,82.8,53.9,29.94,East,88,4.0,4.0,37,0.00,,,0.00,754,Wunderground v.1.15,2013-07-03 08:15:00,
2013-07-03 11:24:00,83.0,54.0,29.94,East,88,4.0,6.0,37,0.00,,,0.00,756,Wunderground v.1.15,2013-07-03 08:24:00,
2013-07-03 11:34:00,83.4,54.4,29.94,East,88,4.0,7.0,37,0.00,,,0.00,788,Wunderground v.1.15,2013-07-03 08:34:00,
2013-07-03 11:45:00,83.0,54.0,29.94,East,86,5.0,5.0,37,0.00,,,0.00,805,Wunderground v.1.15,2013-07-03 08:45:00,
2013-07-03 11:50:00,83.2,54.2,29.94,East,81,4.0,5.0,37,0.00,,,0.00,810,Wunderground v.1.15,2013-07-03 08:50:00,
2013-07-03 11:54:00,83.7,54.7,29.94,East,81,4.0,4.0,37,0.00,,,0.00,823,Wunderground v.1.15,2013-07-03 08:54:00,
2013-07-03 12:34:00,81.7,61.2,29.94,South,186,3.0,3.0,50,0.00,,,0.00,879,Wunderground v.1.15,2013-07-03 09:34:00,
2013-07-03 12:44:00,82.2,60.0,29.93,South,188,3.0,3.0,47,0.00,,,0.00,879,Wunderground v.1.15,2013-07-03 09:44:00,
2013-07-03 12:54:00,82.4,60.1,29.93,South,191,3.0,3.0,47,0.00,,,0.00,884,Wunderground v.1.15,2013-07-03 09:54:00,
2013-07-03 13:04:00,82.0,62.1,29.93,SSW,198,4.0,4.0,51,0.00,,,0.00,900,Wunderground v.1.15,2013-07-03 10:04:00,
2013-07-03 13:24:00,82.3,60.6,29.93,SSW,205,3.0,6.0,48,0.00,,,0.00,907,Wunderground v.1.15,2013-07-03 10:24:00,
2013-07-03 13:30:00,82.3,59.4,29.93,SSW,208,4.0,6.0,46,0.00,,,0.00,911,Wunderground v.1.15,2013-07-03 10:30:00,
2013-07-03 13:34:00,82.5,59.0,29.92,SSW,209,4.0,7.0,45,0.00,,,0.00,912,Wunderground v.1.15,2013-07-03 10:34:00,
2013-07-03 13:44:00,82.8,61.1,29.92,SW,217,5.0,8.0,48,0.00,,,0.00,902,Wunderground v.1.15,2013-07-03 10:44:00,
2013-07-03 13:54:00,82.8,60.5,29.92,SW,217,4.0,5.0,47,0.00,,,0.00,318,Wunderground v.1.15,2013-07-03 10:54:00,
2013-07-03 14:04:00,82.5,63.6,29.93,SW,219,4.0,4.0,53,0.00,,,0.00,1081,Wunderground v.1.15,2013-07-03 11:04:00,
2013-07-03 14:15:00,82.7,61.6,29.92,SW,220,3.0,5.0,49,0.00,,,0.00,958,Wunderground v.1.15,2013-07-03 11:15:00,
2013-07-03 14:24:00,83.2,62.1,29.92,SW,223,4.0,4.0,49,0.00,,,0.00,933,Wunderground v.1.15,2013-07-03 11:24:00,
2013-07-03 14:30:00,83.3,61.0,29.92,SW,223,4.0,5.0,47,0.00,,,0.00,914,Wunderground v.1.15,2013-07-03 11:30:00,
2013-07-03 14:44:00,84.2,60.6,29.92,SW,223,3.0,3.0,45,0.00,,,0.00,867,Wunderground v.1.15,2013-07-03 11:44:00,
2013-07-03 14:54:00,84.4,60.1,29.92,SW,225,3.0,3.0,44,0.00,,,0.00,854,Wunderground v.1.15,2013-07-03 11:54:00,
2013-07-03 15:04:00,85.0,59.3,29.91,SW,225,3.0,6.0,42,0.00,,,0.00,840,Wunderground v.1.15,2013-07-03 12:04:00,
2013-07-03 15:14:00,84.8,58.5,29.91,SW,223,4.0,4.0,41,0.00,,,0.00,835,Wunderground v.1.15,2013-07-03 12:14:00,
2013-07-03 15:34:00,85.4,60.4,29.91,SW,224,3.0,4.0,43,0.00,,,0.00,791,Wunderground v.1.15,2013-07-03 12:34:00,
2013-07-03 15:44:00,84.5,60.2,29.90,SW,227,4.0,6.0,44,0.00,,,0.00,772,Wunderground v.1.15,2013-07-03 12:44:00,
2013-07-03 15:54:00,85.4,59.0,29.90,SW,227,3.0,4.0,41,0.00,,,0.00,754,Wunderground v.1.15,2013-07-03 12:54:00,
2013-07-03 16:15:00,86.5,61.3,29.89,SW,226,3.0,3.0,43,0.00,,,0.00,719,Wunderground v.1.15,2013-07-03 13:15:00,
2013-07-03 16:45:00,85.6,58.5,29.88,SW,232,3.0,3.0,40,0.00,,,0.00,643,Wunderground v.1.15,2013-07-03 13:45:00,
2013-07-03 16:54:00,86.5,57.9,29.88,SW,224,3.0,3.0,38,0.00,,,0.00,621,Wunderground v.1.15,2013-07-03 13:54:00,
2013-07-03 17:04:00,87.2,57.8,29.87,SW,223,3.0,4.0,37,0.00,,,0.00,598,Wunderground v.1.15,2013-07-03 14:04:00,
2013-07-03 17:24:00,87.1,58.4,29.86,SW,214,3.0,3.0,38,0.00,,,0.00,541,Wunderground v.1.15,2013-07-03 14:24:00,
2013-07-03 17:34:00,86.7,58.1,29.86,SW,215,4.0,4.0,38,0.00,,,0.00,517,Wunderground v.1.15,2013-07-03 14:34:00,
2013-07-03 17:44:00,87.1,57.7,29.86,SW,215,2.0,3.0,37,0.00,,,0.00,485,Wunderground v.1.15,2013-07-03 14:44:00,
2013-07-03 17:54:00,87.7,58.2,29.86,SW,215,2.0,2.0,37,0.00,,,0.00,461,Wunderground v.1.15,2013-07-03 14:54:00,
2013-07-03 18:04:00,88.3,58.7,29.86,SW,215,1.0,2.0,37,0.00,,,0.00,434,Wunderground v.1.15,2013-07-03 15:04:00,
2013-07-03 18:15:00,88.1,57.8,29.86,SW,215,2.0,2.0,36,0.00,,,0.00,401,Wunderground v.1.15,2013-07-03 15:15:00,
2013-07-03 18:24:00,87.6,58.1,29.86,SW,215,1.0,1.0,37,0.00,,,0.00,373,Wunderground v.1.15,2013-07-03 15:24:00,
2013-07-03 18:34:00,86.7,57.3,29.86,SSW,207,3.0,5.0,37,0.00,,,0.00,345,Wunderground v.1.15,2013-07-03 15:34:00,
2013-07-03 18:54:00,84.8,56.4,29.86,SE,141,6.0,6.0,38,0.00,,,0.00,283,Wunderground v.1.15,2013-07-03 15:54:00,
2013-07-03 19:04:00,84.6,56.2,29.87,SE,132,6.0,6.0,38,0.00,,,0.00,248,Wunderground v.1.15,2013-07-03 16:04:00,
2013-07-03 19:45:00,83.8,55.5,29.88,ESE,118,5.0,8.0,38,0.00,,,0.00,125,Wunderground v.1.15,2013-07-03 16:45:00,
2013-07-03 19:54:00,83.3,55.8,29.88,East,98,7.0,7.0,39,0.00,,,0.00,95,Wunderground v.1.15,2013-07-03 16:54:00,
2013-07-03 20:04:00,83.0,55.5,29.88,East,98,4.0,5.0,39,0.00,,,0.00,37,Wunderground v.1.15,2013-07-03 17:04:00,
2013-07-03 20:14:00,82.9,55.4,29.88,East,98,6.0,6.0,39,0.00,,,0.00,28,Wunderground v.1.15,2013-07-03 17:14:00,
2013-07-03 20:24:00,82.7,55.2,29.88,East,98,4.0,7.0,39,0.00,,,0.00,26,Wunderground v.1.15,2013-07-03 17:24:00,
2013-07-03 20:44:00,82.2,55.5,29.88,East,98,2.0,2.0,40,0.00,,,0.00,7,Wunderground v.1.15,2013-07-03 17:44:00,
2013-07-03 20:54:00,81.7,55.0,29.88,East,91,5.0,7.0,40,0.00,,,0.00,0,Wunderground v.1.15,2013-07-03 17:54:00,
2013-07-03 21:24:00,81.4,54.8,29.89,East,91,3.0,3.0,40,0.00,,,0.00,0,Wunderground v.1.15,2013-07-03 18:24:00,
2013-07-03 21:34:00,81.2,54.6,29.89,East,91,3.0,4.0,40,0.00,,,0.00,0,Wunderground v.1.15,2013-07-03 18:34:00,
2013-07-03 21:45:00,80.9,53.6,29.89,East,91,5.0,5.0,39,0.00,,,0.00,0,Wunderground v.1.15,2013-07-03 18:45:00,
2013-07-03 21:54:00,80.6,54.0,29.90,East,91,5.0,6.0,40,0.00,,,0.00,0,Wunderground v.1.15,2013-07-03 18:54:00,
2013-07-03 22:04:00,80.4,53.9,29.90,East,91,5.0,6.0,40,0.00,,,0.00,0,Wunderground v.1.15,2013-07-03 19:04:00,
2013-07-03 22:15:00,80.3,53.8,29.90,East,91,5.0,5.0,40,0.00,,,0.00,0,Wunderground v.1.15,2013-07-03 19:15:00,
2013-07-03 22:24:00,80.2,53.7,29.90,East,91,3.0,6.0,40,0.00,,,0.00,0,Wunderground v.1.15,2013-07-03 19:24:00,
2013-07-03 22:34:00,80.1,53.6,29.90,East,91,5.0,5.0,40,0.00,,,0.00,0,Wunderground v.1.15,2013-07-03 19:34:00,
2013-07-03 22:45:00,80.0,53.5,29.91,East,91,3.0,3.0,40,0.00,,,0.00,0,Wunderground v.1.15,2013-07-03 19:45:00,
2013-07-03 23:04:00,79.7,53.9,29.90,East,91,4.0,4.0,41,0.00,,,0.00,0,Wunderground v.1.15,2013-07-03 20:04:00,
2013-07-03 23:14:00,79.6,53.8,29.90,East,91,4.0,6.0,41,0.00,,,0.00,0,Wunderground v.1.15,2013-07-03 20:14:00,
2013-07-03 23:24:00,79.6,53.8,29.90,East,91,3.0,3.0,41,0.00,,,0.00,0,Wunderground v.1.15,2013-07-03 20:24:00,
2013-07-03 23:34:00,79.5,53.7,29.91,East,91,4.0,9.0,41,0.00,,,0.00,0,Wunderground v.1.15,2013-07-03 20:34:00,
2013-07-03 23:45:00,79.4,53.0,29.91,East,91,5.0,11.0,40,0.00,,,0.00,0,Wunderground v.1.15,2013-07-03 20:45:00,
2013-07-03 23:54:00,79.2,52.8,29.91,East,91,6.0,6.0,40,0.00,,,0.00,0,Wunderground v.1.15,2013-07-03 20:54:00,